JE7ZDC Weather Reports


time (UTC)temp
F
wind
direction
speed
knots
gust
knots
rain 1hr
in
rain 24hr
in
rain mn
in
humidity
%
barometer
mb
20260502210105 53 194 0.0 0.9 0.00 0.01 0.00 69 1012.6
20260502204553 53 198 0.0 1.7 0.00 0.01 0.00 69 1012.6
20260502203051 52 148 0.0 2.6 0.00 0.01 0.00 71 1012.6
20260502201548 52 307 0.0 1.7 0.00 0.01 0.00 70 1012.5
20260502200046 52 272 0.0 2.6 0.00 0.01 0.00 70 1012.3
20260502194544 52 160 0.0 2.6 0.00 0.02 0.00 70 1012.0
20260502193041 51 101 0.9 3.5 0.00 0.02 0.00 73 1012.3
20260502191539 51 158 0.0 0.9 0.00 0.02 0.00 76 1012.3
20260502190037 51 161 0.0 0.0 0.00 0.02 0.00 75 1012.0
20260502184545 51 252 0.0 2.6 0.00 0.02 0.00 75 1012.1
20260502183032 50 257 0.0 2.6 0.00 0.02 0.00 78 1011.8
20260502181527 46 158 0.0 2.6 0.00 0.02 0.00 87 1011.9
20260502163019 45 120 0.0 0.9 0.00 0.02 0.00 89 1011.6
20260502161515 45 110 0.0 0.9 0.00 0.02 0.00 88 1011.5
20260502151505 46 270 0.0 0.0 0.00 0.02 0.00 85 1011.8
20260502123041 53 261 0.0 0.0 0.00 0.02 0.02 69 1011.2
20260502121543 53 261 0.0 0.9 0.00 0.02 0.02 67 1011.2
20260502114538 54 141 0.0 0.9 0.00 0.02 0.02 64 1010.8
20260502113034 54 22 0.0 0.9 0.00 0.02 0.02 62 1010.6
20260502111536 54 90 0.0 0.0 0.00 0.02 0.02 59 1010.6
20260502110032 55 90 0.0 0.0 0.00 0.02 0.02 57 1010.4
20260502104539 57 89 0.0 0.9 0.00 0.03 0.02 55 1010.2
20260502103027 57 134 0.0 0.0 0.00 0.03 0.02 54 1009.8
20260502101525 57 70 0.0 0.9 0.00 0.03 0.02 54 1009.5
20260502091518 61 238 0.0 2.6 0.00 0.07 0.02 46 1008.3
20260502071501 67 306 0.9 7.8 0.00 0.16 0.02 35 1005.8
20260502070058 68 53 0.9 5.2 0.00 0.16 0.02 35 1005.6
20260502064559 68 38 0.0 5.2 0.00 0.17 0.02 35 1005.4
20260502063057 68 289 0.9 9.6 0.00 0.17 0.02 35 1004.9
20260502061547 68 302 2.6 9.6 0.00 0.17 0.02 34 1004.2
20260502060042 68 283 2.6 15.6 0.01 0.17 0.02 34 1003.6
20260502054540 68 195 4.3 12.2 0.01 0.17 0.02 35 1003.6
20260502053046 67 294 4.3 16.5 0.01 0.17 0.02 34 1003.4
20260502051539 68 37 4.3 18.2 0.01 0.17 0.02 34 1003.2
20260502050035 68 29 3.5 17.4 0.00 0.16 0.01 35 1003.2
20260502044527 68 293 3.5 17.4 0.00 0.16 0.01 37 1003.1
20260502043024 68 58 4.3 11.3 0.00 0.16 0.01 36 1002.9
20260502041523 69 315 3.5 17.4 0.00 0.16 0.01 36 1003.0
20260502040024 69 325 2.6 13.0 0.00 0.16 0.01 37 1002.8
20260502034516 69 56 3.5 18.2 0.00 0.18 0.01 38 1002.6
20260502033014 69 7 3.5 11.3 0.00 0.18 0.01 36 1002.3
20260502031511 69 222 2.6 13.0 0.00 0.18 0.01 39 1002.0
20260502030010 69 88 1.7 9.6 0.00 0.34 0.01 40 1001.6
20260502024505 69 33 2.6 12.2 0.00 0.34 0.01 38 1001.0
20260502023007 69 27 2.6 10.4 0.00 0.34 0.01 43 1001.3
20260502021604 69 289 0.9 8.7 0.00 0.34 0.01 48 1000.8
20260502020057 68 295 4.3 12.2 0.00 0.34 0.01 46 1000.1
20260502014557 69 306 1.7 7.0 0.00 0.46 0.01 47 999.6
20260502013057 68 257 2.6 7.8 0.00 0.46 0.01 45 1000.1
20260502011604 66 303 1.7 5.2 0.00 0.46 0.01 50 1000.7
20260502010047 65 28 0.9 9.6 0.00 0.46 0.01 52 1000.1
20260502004556 65 281 0.9 7.8 0.00 0.61 0.01 55 1000.1
20260502003039 65 305 1.7 13.0 0.00 0.61 0.01 51 999.8
20260502001538 63 283 0.0 5.2 0.00 0.61 0.01 55 999.2
20260502000032 63 86 0.0 3.5 0.00 0.61 0.01 53 998.6
20260501234536 61 127 0.0 7.0 0.00 0.79 0.01 58 997.9
20260501233025 61 276 0.0 7.0 0.00 0.79 0.01 50 998.2
20260501231535 60 257 0.0 4.3 0.00 0.79 0.01 52 997.4
20260501230019 60 288 0.0 4.3 0.00 0.79 0.01 56 997.4
20260501224517 60 204 0.9 5.2 0.00 0.94 0.01 51 997.3
20260501223015 60 316 0.9 5.2 0.00 0.94 0.01 51 997.2
20260501221512 59 290 0.0 3.5 0.00 0.94 0.01 60 995.7
20260501220008 58 63 0.0 9.6 0.00 0.96 0.01 49 996.6
20260501214511 57 273 0.0 11.3 0.00 0.96 0.01 53 995.9
20260501213005 56 309 3.5 19.1 0.00 0.96 0.01 56 995.0
20260501211505 56 245 2.6 13.9 0.00 0.96 0.01 55 993.9